Location: Poughquag
(41.6090°N, 73.6820°W)
Time: 10:08:12
(UTC-04:00)

Vanguard 1 - All Passes

Search period start: 14 October 2019 00:00
Search period end: 24 October 2019 00:00
Orbit: 653 x 3830 km, 34.3° (Epoch: 13 October)

Date Brightness Start Highest point End Pass type
(mag) Time Alt. Az. Time Alt. Az. Time Alt. Az.
14 Oct - 01:37:26 10° W 01:55:29 58° SSW 02:18:03 10° SE visible
14 Oct - 04:02:21 10° W 04:20:08 32° SW 04:37:59 10° SSE visible
14 Oct - 19:00:05 10° S 19:07:01 25° SE 19:17:33 10° E visible
14 Oct - 21:16:45 10° SW 21:27:24 57° SSE 21:46:22 10° E visible
14 Oct - 23:36:41 10° W 23:51:18 68° S 00:14:06 10° ESE visible
15 Oct - 01:58:44 10° W 02:16:44 52° SSW 02:38:40 10° SE visible
15 Oct - 04:24:53 10° W 04:40:51 25° SW 04:56:48 10° S visible
15 Oct - 19:19:47 10° SSW 19:27:21 32° SE 19:39:45 10° E visible
15 Oct - 21:37:27 10° WSW 21:48:27 62° SSE 22:08:05 10° E visible
15 Oct - 23:57:43 10° W 00:12:40 65° S 00:35:28 10° ESE visible
16 Oct - 02:20:10 10° W 02:37:53 45° SSW 02:58:59 10° SSE visible
16 Oct - 04:48:23 10° W 05:01:29 19° SW 05:14:33 10° SSW visible
16 Oct - 19:39:52 10° SSW 19:47:50 40° SSE 20:01:41 10° E visible
16 Oct - 21:58:13 10° WSW 22:09:35 65° S 22:29:46 10° E visible
17 Oct - 00:18:47 10° W 00:34:00 61° SSW 00:56:38 10° ESE visible
17 Oct - 02:41:47 10° W 02:58:55 38° SW 03:18:53 10° SSE visible
17 Oct - 05:14:19 10° WSW 05:22:04 13° SW 05:29:49 10° SSW visible
17 Oct - 17:45:45 10° SSE 17:49:29 14° SE 17:54:07 10° ESE daylight
17 Oct - 20:00:11 10° SW 20:08:31 47° SSE 20:23:28 10° E visible
17 Oct - 22:19:05 10° WSW 22:30:48 66° S 22:51:24 10° ESE visible
18 Oct - 00:39:55 10° W 00:55:19 56° SSW 01:17:34 10° SE visible
18 Oct - 03:03:44 10° W 03:19:53 31° SW 03:38:16 10° SSE visible
18 Oct - 18:04:28 10° S 18:09:41 20° SE 18:17:08 10° E daylight
18 Oct - 20:20:42 10° SW 20:29:20 54° SSE 20:45:11 10° E visible
18 Oct - 22:40:01 10° W 22:52:03 65° S 23:12:55 10° ESE visible
19 Oct - 01:01:09 10° W 01:16:34 49° SSW 01:38:13 10° SE visible
19 Oct - 03:26:13 10° W 03:40:46 24° SW 03:56:58 10° S visible
19 Oct - 18:24:04 10° SSW 18:30:01 27° SE 18:39:20 10° E visible
19 Oct - 20:41:21 10° WSW 20:50:16 59° SSE 21:06:52 10° E visible
19 Oct - 23:00:58 10° W 23:13:19 62° S 23:34:19 10° ESE visible
20 Oct - 01:22:30 10° W 01:37:46 43° SSW 01:58:31 10° SSE visible
20 Oct - 03:49:44 10° W 04:01:37 18° SW 04:14:29 10° SSW visible
20 Oct - 18:44:06 10° SSW 18:50:30 35° SSE 19:01:12 10° E visible
20 Oct - 21:02:05 10° WSW 21:11:18 62° S 21:28:30 10° E visible
20 Oct - 23:21:58 10° W 23:34:35 58° SSW 23:55:31 10° ESE visible
21 Oct - 01:44:05 10° W 01:58:54 36° SSW 02:18:23 10° SSE visible
21 Oct - 04:16:05 10° WSW 04:22:26 12° SW 04:29:02 10° SSW visible
21 Oct - 19:04:24 10° SW 19:11:07 42° SSE 19:22:53 10° E visible
21 Oct - 21:22:54 10° WSW 21:32:25 63° S 21:50:06 10° ESE visible
21 Oct - 23:43:02 10° W 23:55:50 52° SSW 00:16:28 10° SE visible
22 Oct - 02:05:59 10° W 02:19:59 29° SW 02:37:41 10° SSE visible
22 Oct - 17:09:06 10° S 17:12:46 16° SE 17:17:28 10° ESE daylight
22 Oct - 19:24:55 10° SW 19:31:53 49° SSE 19:44:31 10° E visible
22 Oct - 21:43:46 10° W 21:53:34 61° S 22:11:36 10° ESE visible
23 Oct - 00:04:13 10° W 00:17:04 46° SSW 00:37:06 10° SE visible
23 Oct - 02:28:30 10° W 02:41:01 22° SW 02:56:11 10° S visible
23 Oct - 17:28:32 10° SSW 17:33:07 23° SE 17:39:44 10° E daylight
23 Oct - 19:45:32 10° WSW 19:52:45 55° SSE 20:06:06 10° E visible
23 Oct - 22:04:41 10° W 22:14:44 58° S 22:32:58 10° ESE visible
